Location: Cherryland
(37.6794°N, 122.1033°W)
Time: 06:03:39
(UTC+00:00)

Meteor 1-19 Rocket - Pass Details

Date: 14 December 2025
Orbit: 808 x 924 km, 81.2° (Epoch: 20 January)

Event Time Altitude Azimuth Distance (km) Brightness Sun altitude
Rises 14:12:53 0° 351° (N) 3,505 7.1 -12.2°
Reaches altitude 10° 14:15:20 10° 353° (N) 2,577 6.5 -11.7°
Maximum altitude 14:21:14 83° 81° (E) 924 4.5 -10.6°
Drops below altitude 10° 14:27:14 10° 170° (S) 2,610 7.2 -9.5°
Sets 14:29:43 0° 171° (S) 3,553 7.9 -9.1°
